Showing default

OPS 4467 A, 812

Orbit data source: Space-Track

OPS 4467 A, 812 is an American payload satellite in SSO that was launched on Thu, 18 Jun 1964 UTC via a THOR SLV-2 AGENA D launch vehicle from the Air Force Western Test Range (AFWTR). Payloads include a variety of satellites, spacecraft, and rockets equipped with specific instruments for various scientific and technological missions. These include communications satellites like Starlink; space stations such as the ISS; scientific satellites like the Hubble; Earth observation satellites from companies like Planet Labs, Umbra, and HawkEye 360; GPS; miniature CubeSats for education and research; and military/defense satellites.

Loading next visibility...
OPS 4467 A details
Identifier
812, 1964-031A
Orbit
SSO
Last TLE update12 hours ago
Origin
Flag of USNRO/SAFSP (US)
ManufacturerRCA/East Windsor
MissionDefense Weather
Bus & MotorP35, Unknown motor
Mass50 kg wet, 50 kg dry
Launch date (UTC)
1964-06-18 (61 years ago)
Launch vehicle
THOR SLV-2 AGENA D
Launch site
Air Force Western Test Range (AFWTR)
Object type
Payload
Rocket body
Debris
Shape & HBRCyl, 0.6 m
Radar Cross Section0.377 m², Medium (>0.1 m² and < 1m²)

Expand to show TLE details & history

TLE from 12 hours ago
0 OPS 4467 A
1 00812U 64031A   25014.82162574  .00000163  00000-0  93675-4 0  9996
2 00812  99.7752 106.3880 0006297 100.4122 259.7763 14.24389934142498
Epoch: 2025-01-14T19:43Z
Definitive object data (Epoch: 2025-01-14T19:43:08.463Z)
Latitude-0.00008°
Longitude56.07993°
Altitude814.235 km
Speed7.446 km/s
True Right ascension07h 05m 33s
True Declination0° 00' 00"
Sunlit
Object was in full shadow at TLE epoch
Visualization TLE readout
Latitude-53.48992°
Longitude70.0007°
Altitude835.291 km
Speed7.432 km/s
Apparent Right ascension19h 13m 55s
Apparent Declination-86° 27' 15"
Sunlit
Object is in daylight
Visualization observer readout
Local Sidereal Time07:55:23
Azimuth179.123° S
Elevation-43.401°
Doppler factor1
Orbital elements
Apogee altitude812.276 km
Perigee altitude803.226 km
Semi-major axis7,185.888 km
Eccentricity0.0006297
Inclination99.7752°
RAAN106.388°
Arg. of periapsis100.4122°
True anomaly259.7053°
Mean anomaly259.7763°
Eccentric anomaly259.7408°
Mean motion3.56305 °/min
BSTAR0.000093675
Orbital period101.04 mins
Loading maneuver chart data...
Loading historical data...
Loading historical data...
Loading historical data...
Loading historical data...
Loading historical data...
Loading historical data...
Loading historical data...
Other satellites on launch #31 in the year 1964 (1964-06-18 UTC)

OPS 4467 A Visibility forecast

Observer location: undefined°, undefined

Span
Click to sort rows by Start time (UTC) header in descending order
Start Az.
Max El. time (UTC)
Max El. Az.
Max El.
End time (UTC)
End Az.
8 mins2025-01-15 18:13:52.181Z38.753° NE2025-01-15 18:17:52.181Z102.968° ESE29.958°2025-01-15 18:21:52.181Z161.13° S
6 mins2025-01-15 19:54:52.181Z335.863° NNW2025-01-15 19:56:52.181Z303.808° NW25.283°2025-01-15 20:00:52.181Z243.1° WSW
9 mins2025-01-16 05:33:52.181Z148.109° SSE2025-01-16 05:37:52.181Z68.666° E41.576°2025-01-16 05:42:52.181Z352.248° N
|